Simultaneous Nadir Overpasses (SNOs) Predictions

Prediction of SNOs between AQUA and METOP-B Satellite Orbit:

Table of predicted SNOs for the next 14.0 days since TLE Epoch: 8/1/2014
Index Date (AQUA) Time (AQUA) Lat,Lon (AQUA) SZA (AQUA ) Date (METOP-B) Time (METOP-B) Lat,Lon (METOP-B) SZA (METOP-B ) Distance(km) Time Diff (sec)
1 08/02/2014 01:49:11 73.76, 147.15 56.00 08/02/2014 01:48:00 73.77, 147.26 56.02 3.71 71
2 08/02/2014 02:38:38 -73.84, -45.39 123.91 08/02/2014 02:38:41 -73.83, -45.28 123.92 3.45 3
3 08/02/2014 03:28:07 73.91, 122.10 56.18 08/02/2014 03:29:19 73.90, 122.22 56.15 4.04 72
4 08/04/2014 21:23:26 73.75,-146.40 56.72 08/04/2014 21:22:22 73.73,-146.44 56.72 2.33 64
5 08/04/2014 22:12:53 -73.82, 21.08 123.19 08/04/2014 22:13:02 -73.84, 21.16 123.18 3.18 9
6 08/04/2014 23:02:26 74.10,-171.92 57.13 08/04/2014 23:03:36 74.10,-170.87 57.08 31.88 70
7 08/07/2014 16:57:42 73.76, -80.00 57.51 08/07/2014 16:56:43 73.78, -79.91 57.53 3.36 59
8 08/07/2014 17:47:09 -73.84, 87.48 122.41 08/07/2014 17:47:24 -73.85, 87.58 122.40 3.35 15
9 08/07/2014 18:36:46 74.33,-106.01 58.14 08/07/2014 18:37:54 74.30,-103.97 58.03 61.35 68
10 08/10/2014 12:31:57 73.76, -13.55 58.31 08/10/2014 12:31:05 73.78, -13.52 58.34 2.70 52
11 08/10/2014 13:21:24 -73.83, 153.94 121.61 08/10/2014 13:21:46 -73.85, 153.99 121.59 3.24 22
12 08/10/2014 14:11:06 74.58, -40.17 59.22 08/10/2014 14:12:10 74.59, -36.81 59.11 99.52 64
13 08/13/2014 08:06:11 73.78, 52.84 59.16 08/13/2014 08:05:26 73.77, 52.87 59.17 1.03 45
14 08/13/2014 08:55:38 -73.84,-139.66 120.76 08/13/2014 08:56:07 -73.85,-139.62 120.76 1.46 29




NCC Satellite Simultaneous Nadir Overpasses (SNOs) Prediction Service
